Location: Bijele Vode
(45.2833°N, 16.2000°E)
Time: 22:53:36
(UTC+00:00)

Cosmos 1125 Rocket - Pass Details

Date: 24 January 2021
Orbit: 757 x 780 km, 74.0° (Epoch: 08 March)

Event Time Altitude Azimuth Distance (km) Brightness Sun altitude
Exits shadow 03:28:46 - 1° (N) 2,629 6.3 -30.7°
Reaches altitude 10° 03:29:54 10° 10° (N) 2,337 6.1 -30.5°
Maximum altitude 03:33:20 17° 51° (NE) 1,886 6.0 -29.9°
Drops below altitude 10° 03:36:46 10° 91° (E) 2,334 6.9 -29.3°
Sets 03:39:59 0° 111° (ESE) 3,259 7.8 -28.7°
